Location: downtown San Diego
(32.7310°N, 117.1990°W)
Time: 02:51:10
(UTC-07:00)

Cosmos 2151 - Pass Details

Date: 12 July 2018
Orbit: 582 x 601 km, 82.5° (Epoch: 23 September)

Event Time Altitude Azimuth Distance (km) Brightness Sun altitude
Exits shadow 20:42:43 - 158° (SSE) 2,197 5.4 -8.8°
Reaches altitude 10° 20:43:31 10° 154° (SSE) 1,897 5.0 -9.0°
Maximum altitude 20:47:14 31° 91° (E) 1,020 3.7 -9.6°
Drops below altitude 10° 20:50:58 10° 28° (NNE) 1,903 5.6 -10.3°
Sets 20:53:19 0° 19° (NNE) 2,806 6.7 -10.7°
